FW4000 Weather Reports


time (UTC)temp
F
wind
direction
speed
knots
gust
knots
rain 1hr
in
rain 24hr
in
rain mn
in
humidity
%
barometer
mb
20260507044630 51 360 0.0 2.6 0.00 0.17 0.00 91 1013.9
20260507043001 51 360 0.9 3.5 0.00 0.17 0.00 91 1013.8
20260507041506 51 360 5.2 6.1 0.00 0.17 0.00 91 1013.7
20260507040052 51 360 2.6 4.3 0.00 0.17 0.00 92 1013.7
20260507034603 50 360 0.9 3.5 0.00 0.17 0.00 91 1013.6
20260507033032 51 360 1.7 3.5 0.00 0.17 0.00 91 1013.6
20260507031609 51 360 0.9 4.3 0.00 0.17 0.00 90 1013.6
20260507030115 51 360 0.9 4.3 0.00 0.17 0.00 90 1013.5
20260507024619 51 360 0.9 3.5 0.00 0.17 0.00 90 1013.6
20260507023129 51 360 2.6 4.3 0.00 0.17 0.00 90 1013.6
20260507021504 51 360 0.9 2.6 0.00 0.17 0.00 89 1013.6
20260507020019 50 360 1.7 3.5 0.00 0.17 0.00 88 1013.5
20260507014503 50 360 1.7 3.5 0.00 0.17 0.00 88 1013.5
20260507013133 50 360 1.7 4.3 0.00 0.17 0.00 88 1013.4
20260507011512 51 360 1.7 2.6 0.00 0.17 0.00 88 1013.2
20260507010017 51 360 1.7 3.5 0.00 0.17 0.00 87 1013.2
20260507004553 51 360 0.9 2.6 0.00 0.17 0.00 86 1013.1
20260507003107 51 360 1.7 3.5 0.00 0.17 0.00 85 1013.2
20260507001607 52 360 1.7 2.6 0.00 0.17 0.00 84 1013.2
20260507000048 52 360 0.0 2.6 0.00 0.17 0.00 82 1013.1
20260506234507 53 360 2.6 6.1 0.00 0.17 0.00 81 1013.1
20260506233112 53 360 0.9 2.6 0.00 0.17 0.00 82 1013.1
20260506231514 53 360 1.7 3.5 0.00 0.17 0.00 81 1013.0
20260506230109 54 360 1.7 5.2 0.00 0.17 0.00 80 1013.1
20260506224614 55 360 0.9 3.5 0.00 0.17 0.00 77 1013.0
20260506223114 55 360 3.5 5.2 0.00 0.17 0.00 79 1012.9
20260506221607 55 360 1.7 3.5 0.00 0.17 0.00 79 1012.8
20260506220100 55 360 1.7 5.2 0.00 0.17 0.00 80 1012.7
20260506214605 55 360 1.7 4.3 0.02 0.19 0.17 79 1012.6
20260506213124 56 360 1.7 5.2 0.02 0.19 0.17 78 1012.5
20260506211610 56 360 6.1 7.0 0.02 0.19 0.17 78 1012.5
20260506210119 55 360 7.0 10.4 0.02 0.19 0.17 84 1012.4
20260506204626 54 360 1.7 2.6 0.00 0.28 0.16 85 1012.3
20260506203108 54 360 0.9 3.5 0.00 0.28 0.16 84 1012.1
20260506201523 54 360 1.7 3.5 0.00 0.28 0.16 84 1011.8
20260506200057 54 360 1.7 4.3 0.00 0.28 0.16 84 1011.6
20260506194552 55 360 3.5 5.2 0.00 0.32 0.16 81 1011.4
20260506193047 56 360 0.0 1.7 0.00 0.32 0.16 80 1011.0
20260506191506 57 360 0.0 0.0 0.00 0.32 0.16 80 1010.8
20260506190129 57 360 0.9 1.7 0.00 0.32 0.16 79 1010.7
20260506184629 58 360 0.9 3.5 0.00 0.32 0.16 77 1010.5
20260506183014 58 360 0.0 0.0 0.00 0.32 0.16 75 1010.4
20260506181605 58 360 1.7 3.5 0.00 0.32 0.16 75 1010.3
20260506180112 58 360 0.0 0.9 0.00 0.32 0.16 73 1010.0
20260506174614 58 360 0.0 1.7 0.00 0.38 0.16 72 1009.9
20260506173135 60 360 0.9 1.7 0.00 0.38 0.16 66 1009.7
20260506171619 60 360 0.9 1.7 0.00 0.38 0.16 67 1009.4
20260506170119 59 360 0.0 2.6 0.00 0.38 0.16 71 1009.5
20260506164502 59 360 1.7 3.5 0.00 0.39 0.16 72 1009.6
20260506163130 59 360 1.7 4.3 0.00 0.39 0.16 73 1009.6
20260506161630 59 360 1.7 2.6 0.00 0.39 0.16 68 1009.8
20260506160133 59 360 1.7 3.5 0.00 0.39 0.16 66 1009.7
20260506154516 59 360 0.0 2.6 0.00 0.41 0.16 64 1009.9
20260506153011 58 360 0.9 2.6 0.00 0.41 0.16 66 1010.2
20260506151511 58 360 0.9 2.6 0.00 0.41 0.16 65 1010.2
20260506150056 58 360 2.6 4.3 0.00 0.41 0.16 68 1010.3
20260506144605 57 360 2.6 7.0 0.00 0.41 0.16 68 1010.4
20260506143118 58 360 2.6 4.3 0.00 0.41 0.16 67 1010.5
20260506141607 57 360 2.6 5.2 0.00 0.41 0.16 66 1010.6
20260506140047 57 360 3.5 5.2 0.00 0.41 0.16 68 1010.7
20260506134520 56 360 2.6 4.3 0.00 0.43 0.16 70 1010.8
20260506133019 56 360 2.6 4.3 0.00 0.43 0.16 71 1011.1
20260506131519 56 360 1.7 3.5 0.00 0.43 0.16 72 1011.3
20260506130052 54 360 3.5 5.2 0.00 0.43 0.16 78 1011.3
20260506124528 54 360 5.2 7.8 0.00 1.06 0.16 78 1011.4
20260506123027 54 360 6.1 7.8 0.00 1.06 0.16 78 1011.3
20260506121553 54 360 5.2 7.0 0.00 1.06 0.16 80 1011.3
20260506114533 54 360 1.7 6.1 0.01 1.31 0.16 77 1011.4
20260506113054 53 360 1.7 5.2 0.05 1.31 0.16 75 1011.4
20260506111555 53 360 5.2 11.3 0.07 1.31 0.16 74 1011.6
20260506110032 53 360 7.0 16.5 0.12 1.31 0.16 74 1011.7
20260506104600 53 360 7.0 15.6 0.12 1.30 0.15 73 1011.7
20260506103052 53 360 8.7 18.2 0.08 1.26 0.11 75 1011.4
20260506101506 53 360 8.7 14.8 0.06 1.24 0.09 80 1011.1
20260506100013 53 360 7.8 11.3 0.01 1.19 0.04 81 1011.0
20260506094516 52 360 3.5 14.8 0.00 1.20 0.03 83 1010.7
20260506093009 53 360 6.1 13.9 0.02 1.20 0.03 83 1010.5
20260506091638 52 360 10.4 16.5 0.02 1.20 0.03 86 1010.3
20260506090130 52 360 11.3 20.9 0.02 1.20 0.03 88 1010.3
20260506084628 52 360 15.6 24.3 0.02 1.20 0.03 93 1009.9
20260506083004 52 360 0.9 3.5 0.00 1.18 0.02 94 1009.5
20260506081516 52 360 0.0 2.6 0.00 1.18 0.02 94 1009.4
20260506073002 51 360 0.9 2.6 0.01 1.18 0.02 94 1008.8
20260506071500 52 360 2.6 5.2 0.01 1.18 0.02 94 1008.6
20260506061601 52 360 1.7 4.3 0.01 1.17 0.01 94 1008.2
20260506060106 52 360 1.7 3.5 0.00 1.17 0.00 94 1008.0
20260506050135 53 360 2.6 5.2 0.00 1.17 0.00 93 1007.7